{"data":{"norad_id":65063,"epoch":"2026-09-20T22:00:03.000096Z","epoch_age_seconds":84149,"freshness":"FRESH","line1":"1 65063U 25165H   26263.91670139 -.00021912  00000+0 -67834-3 0  9991","line2":"2 65063  97.2858 335.1402 0001578  95.9487 119.8200 15.33445262  5799","mean_motion":15.33445262,"eccentricity":0.0001578,"inclination_deg":97.2858,"raan_deg":335.1402,"arg_perigee_deg":95.9487,"mean_anomaly_deg":119.82,"bstar":-0.00067834,"rev_number":579,"period_min":93.906188612294,"perigee_km":464.46246234205,"apogee_km":466.6223275591,"semimajor_km":6843.6793949506,"source":"CELESTRAK","updated_at":"2026-09-21T09:00:35.499229Z"}}